Regional Weather Roundup
Issued by NWS Pendleton, OR

Home | Current Version | Previous Version | Text Only | Print | Product List | Glossary On
Versions: 1 2 3 4 5 6 7 8 9 10 11 12 13 14 15 16 17 18 19 20 21 22 23 24 25 26 27 28 29 30 31 32 33 34 35 36 37 38 39 40 41 42 43 44 45 46 47 48 49 50
000
ASUS46 KPDT 301725
RWRPDT
PENDLETON REGIONAL WEATHER ROUNDUP
NATIONAL WEATHER SERVICE PENDLETON OREGON
1000 AM PDT THU JUL 30 2015

NOTE: FAIR INDICATES FEW OR NO CLOUDS BELOW 12,000 FEET WITH NO
SIGNIFICANT WEATHER AND/OR OBSTRUCTIONS TO VISIBILITY.

# INDICATES UNOFFICIAL STATION AND DATA

WAZ520-301810-
EAST SLOPES OF WASHINGTON CASCADES

CITY            SKY/WX      TMP DP  RH  WIND    PRES   REMARKS
#BULLFROG 2SW   N/A         77  46  33  N3      27.76F
#BUMPING DAM    N/A         62  N/A N/A N3      N/A
#CLE ELUM HS    N/A         76  40  27  CALM    30.10F
#CLE ELUM LAKE  N/A         77  42  29  CALM    30.02F
#CLIFFDEL 2NW   N/A         65  39  38  CALM    N/A
#GLENWOOD       N/A         71  54  55  CALM    30.07F
#MANASTASH CYN  N/A         76  42  30  NW1     30.15S
#NELSON         N/A         71  46  41  CALM    30.08F
#NELSON 3SW     N/A         75  44  33  CALM    30.24F
#NILE           N/A         75  44  33  W2      29.35F
#RONALD 2NW     N/A         74  42  32  CALM    30.06F
#SNOWDEN        N/A         82  18   9  E3      N/A
#TEANAWAY 4NE   N/A         74  41  30  W2      N/A
#TROUT LAKE 1NE N/A         78  52  40  CALM    30.04F
$$

WAZ521-301810-
SIMCOE HIGHLANDS

CITY            SKY/WX      TMP DP  RH  WIND    PRES   REMARKS
#BICKLETON HS   N/A         82  24  12  E3      N/A
#CENTERVILLE 4W N/A         80  42  26  CALM    29.89S
#GOLDENDALE     N/A         76  38  25  CALM    N/A
#GOLDENDALE 1NE N/A         82  33  17  SW1     N/A
#GOLDENDALE 5WNWN/A         84  43  24  S2      30.02F
#GOODNOE HILLS  N/A         88  39  18  SE8     N/A
#LYLE 6NE       N/A         77  45  32  CALM    30.00F
$$

WAZ026-301810-
KITTITAS VALLEY

CITY            SKY/WX      TMP DP  RH  WIND    PRES   REMARKS
ELLENSBURG AP   SUNNY       77  44  31  VRB3    30.16F
YTC-OPS AREA    N/A         81  33  18  N6      30.19S
#ELLENSBURG CWU N/A         77  47  35  CALM    30.03F
#ELLENSBURG 3NE N/A         73  47  40  CALM    30.15F
#KITTITAS 3S    N/A         70  53  55  CALM    30.07F
#THORP 6N       N/A         79  40  25  CALM    30.07F
$$

WAZ027-301810-
YAKIMA VALLEY

CITY            SKY/WX      TMP DP  RH  WIND    PRES   REMARKS
SUNNYSIDE AP    SUNNY       76  47  36  CALM    30.10F
YAKIMA AIRPORT  SUNNY       83  47  28  VRB6    30.12F
#DONALD 2NE     N/A         88  35  15  CALM    28.96S
#GRANDVIEW      N/A         81  45  28  CALM    30.08F
#MABTON         N/A         78  51  39  CALM    30.09F
#MOXEE 2E       N/A         84  19   9  NW1     29.98F
#NACHES 2SW     N/A         81  51  35  W1      30.16S
#OUTLOOK DOT    N/A         N/A N/A N/A W5      N/A
#SELAH 8E       N/A         89  35  15  E3      N/A
#TERRACE HTS    N/A         78  50  38  CALM    30.02F
#TOPPENISH      N/A         79  50  36  CALM    29.98F
#WAPATO 4NE     N/A         88  35  15  CALM    28.96S
#WEST VALLEY    N/A         81  51  35  CALM    30.04F
#WHITE SWAN 5E  N/A         81  49  33  NE2     30.06F
#WILEY CITY 3W  N/A         81  33  18  CALM    30.10F
$$

WAZ028-301810-
LOWER COLUMBIA BASIN...WASHINGTON

CITY            SKY/WX      TMP DP  RH  WIND    PRES   REMARKS
HANFORD         SUNNY       84  37  19  NE5     30.10S
PASCO           SUNNY       79  45  30  CALM    30.10F
RICHLAND AWOS   SUNNY       81  45  28  W3      30.10F
#BASIN CITY 5SW N/A         80  59  49  CALM    30.09F
#BENTON CITY    N/A         81  47  30  CALM    29.97F
#CONNELL 5N     N/A         87  37  17  CALM    30.05F
#CONNELL 5NW    N/A         79  53  41  NW2     30.03S
#ELTOPIA 6NW    N/A         79  55  44  N3      29.08S
#KAHLOTUS       N/A         79  37  22  S6      30.06S
#KENNEWICK      N/A         77  46  33  N3      27.76F
#KENNEWICK 3S   N/A         78  50  38  CALM    30.07S
#PATERSON       N/A         75  48  38  CALM    30.05F
#PROSSER        N/A         78  41  27  W2      30.06S
#SAGEMOOR 2W    N/A         79  55  44  CALM    29.91F
#TOUCHET 2S     N/A         80  51  36  W1      30.05F
#WEST PASCO     N/A         81  52  37  CALM    30.08F
$$

WAZ029-301810-
FOOTHILLS OF THE BLUES...WASHINGTON

CITY            SKY/WX      TMP DP  RH  WIND    PRES   REMARKS
WALLA WALLA AP  SUNNY       84  39  20  NW6     30.11S
#DAYTON SCHOOL  N/A         89  37  16  E1      30.11S
#LOWDEN 2SE     N/A         78  50  38  W2      30.05F
#PLEASANT VIEW 1N/A         82  36  19  N1      30.08S
#PRESCOTT       N/A         88  43  21  CALM    30.04F
#SUDBURY        N/A         84  N/A N/A CALM    N/A
#WHITMAN COLLEGEN/A         80  44  28  W3      30.09F
#WAITSBURG 8N   N/A         91  31  12  SE3     29.94S HX 87
#WALLA WALLA U  N/A         78  47  34  CALM    30.05S
#WHITMAN MISSIONN/A         78  48  35  CALM    30.06F
$$

WAZ030-301810-
BLUE MOUNTAINS...WASHINGTON

CITY            SKY/WX      TMP DP  RH  WIND    PRES   REMARKS
$$

ORZ009-041-WAZ024-301810-
COLUMBIA RIVER GORGE

CITY            SKY/WX      TMP DP  RH  WIND    PRES   REMARKS
HOOD RIVER AP   SUNNY       77  46  33  CALM    30.09F
THE DALLES AP   SUNNY       78  41  27  CALM    30.07F
#ARLINGTON AIRPON/A         80  41  25  N3      N/A
#CELILO DOT     N/A         78  52  40  NW1     N/A
#MOSIER 1S      N/A         80  35  20  CALM    30.11S
#MURDOCK        N/A         77  46  33  SW2     30.07F
#RUFUS DOT      N/A         76  50  40  NW6     N/A

$$

ORZ510-301810-
NORTH CENTRAL OREGON

CITY            SKY/WX      TMP DP  RH  WIND    PRES   REMARKS
#CHENOWITH 1W   N/A         83  38  20  E5      N/A
#DUFUR 9E       N/A         79  36  21  NE2     30.05F
#GRASS VALLEY 1SN/A         87  42  21  CALM    30.06S
#KENT DOT       N/A         84  41  22  CALM    N/A
#MAUPIN SCHOOL  N/A         79  43  28  CALM    30.11F
#MORO SCHOOL    N/A         85  46  26  NE6     30.13F
#SHANIKO 5WSW   N/A         79  39  24  S6      N/A
#SHANIKO 4NW    N/A         83  31  15  S3      30.23S
#TYGH VALLEY 2NEN/A         76  42  30  CALM    30.04F
#WAPANITIA AIRPON/A         83  38  20  CALM    30.04F
#WASCO DOT      N/A         85  50  30  N2      N/A
#WASCO AIRPORT  N/A         82  N/A N/A N3      N/A
#WASCO 5NE      N/A         84  42  23  E2      30.05S
$$

ORZ511-301810-
CENTRAL OREGON

CITY            SKY/WX      TMP DP  RH  WIND    PRES   REMARKS
BEND AIRPORT    SUNNY       81  34  18  CALM    30.21F
MADRAS AIRPORT  SUNNY       77  32  19  CALM    30.19F
PRINEVILLE AP   SUNNY       82  30  15  VRB3    30.20F
REDMOND AIRPORT SUNNY       79  32  18  VRB3    30.20F
#BEND 1SW       N/A         77  40  26  W1      N/A
#BEND-AWBREY    N/A         77  39  25  S1      30.02F
#BEND-KIM LN    N/A         76  41  28  S1      30.20F
#CULVER         N/A         80  42  26  CALM    30.14F
#LAKE BILLY CHINN/A         77   1   5  W6      30.17F
#POWELL BUTTE   N/A         86  47  26  N3      29.82F
#PRINEVILLE 3N  N/A         78  51  39  CALM    30.01F
#WARM SPRINGS   N/A         80  41  25  CALM    30.10F

$$


ORZ509-301810-
EAST SLOPES OF OREGON CASCADES

CITY            SKY/WX      TMP DP  RH  WIND    PRES   REMARKS
#BLUE BOX PASS  N/A         73  15  11  CALM    N/A
#CAMP SHERMAN   N/A         76  38  25  CALM    30.07F
#LA PINE 4NW    N/A         71  43  36  CALM    30.11F
#SISTERS AIRPOR N/A         79  46  31  CALM    30.17S
#SISTERS 1NW    N/A         77  35  22  SE6     N/A
#SISTERS 3N     N/A         78  42  28  E3      30.34S
#SUNRIVER       N/A         73  42  33  S2      29.95F
#TUMALO 3W      N/A         79  37  22  SE2     29.89F
#WANOGA BUTTE D N/A         74  25  16  W3      N/A

$$

ORZ044-301810-
LOWER COLUMBIA BASIN...OREGON

CITY            SKY/WX      TMP DP  RH  WIND    PRES   REMARKS
HERMISTON       SUNNY       79  46  31  W5      30.09F
#BOARDMAN SCHOOLN/A         74  45  35  CALM    30.09F
#BOARDMAN 8SW   N/A         78  51  39  NW3     30.05F
#ECHO 8SW       N/A         82  45  27  E1      30.09F
#IONE SCHOOL    N/A         85  35  17  N2      30.06F
#IRRIGON 4NW    N/A         75  45  34  NE2     N/A
#UMATILLA       N/A         78  48  35  CALM    30.00F
$$

ORZ507-301810-
NORTHERN FOOTHILLS OF THE BLUES

CITY            SKY/WX      TMP DP  RH  WIND    PRES   REMARKS
PENDLETON AIRPT SUNNY       86  35  16  CALM    30.11F
#ADAMS 3WNW     N/A         88  39  18  CALM    30.04F
#ATHENA         N/A         88  41  19  CALM    30.07F
#CAYUSE         N/A         87  45  23  S2      30.02F
#HELIX SCHOOL   N/A         83  40  22  E1      30.04F
#HELIX 3N       N/A         88  38  17  N7      30.10S
#HOLDMAN 5SE    N/A         87  41  20  NW1     30.11F
#HOLDMAN 6E     N/A         87  40  19  CALM    29.86F
#M-F GROVE ELEM N/A         80  38  22  CALM    30.09S
#M-FREEWATER 5SEN/A         81  49  33  CALM    30.10S
#PENDLETON DNTN N/A         85  46  26  CALM    30.05F
#PDT AQUATIC CTRN/A         79  46  31  CALM    30.06F
#PDT SUNRIDGE   N/A         83  40  22  NW1     30.11F
#PENDLETON 7NW  N/A         88  52  29  CALM    N/A
#PILOT ROCK     N/A         83  45  26  N2      30.14F
#TUTUILLA       N/A         84  41  22  CALM    30.08F
#UMAPINE 2E     N/A         77  48  36  W1      30.07S
#WESTON SCHOOL  N/A         84  34  17  E3      30.01F

$$

ORZ508-301810-
SOUTHERN FOOTHILLS OF THE BLUES

CITY            SKY/WX      TMP DP  RH  WIND    PRES   REMARKS
#CONDON SCHOOL  N/A         84  37  19  E2      30.13F
#CONDON 5W      N/A         83  32  16  E2      30.18S
#FOSSIL SCHOOL  N/A         87  38  18  CALM    30.10F
#HEPPNER EOC    N/A         86  40  20  NW1     29.96F
#HEPPNER 4NE    N/A         84  37  19  N2      30.02F
#LEXINGTON 2SE  N/A         87  41  20  N3      30.08F
#OLEX 4N        N/A         82  37  20  NE1     30.09S
#RUGGS 5NE      N/A         89  -2   3  NE2     30.33F
#RUGGS 2SW      N/A         87  37  17  NE3     30.03F

$$

ORZ502-503-301810-
BLUE MOUNTAINS

CITY            SKY/WX      TMP DP  RH  WIND    PRES   REMARKS
MEACHAM         SUNNY       82  39  22  E5      30.25F
#BATTLE MTN DOT N/A         71  51  49  S6      N/A
#HEPPNER 15SE   N/A         82  37  20  CALM    30.18R
#LONG CREEK HS  N/A         77  41  28  CALM    30.21F
#N POWDER DOT   N/A         74  46  37  NW1     N/A
#PIKES PEAK     N/A         80  39  23  N1      27.99S
#TOLLGATE       N/A         75  40  28  SW2     30.16S
#TROY SCHOOL    N/A         81  46  29  CALM    29.94F
#UKIAH          N/A         71  47  42  CALM    30.15F
#WESTON 4E      N/A         83  39  21  N2      29.98S
$$

ORZ505-301810-
JOHN DAY BASIN

CITY            SKY/WX      TMP DP  RH  WIND    PRES   REMARKS
JOHN DAY        SUNNY       82  34  18  E3      30.25F
#JOHN DAY KJDY  N/A         81  32  17  NE1     30.24F
#DAYVILLE SCHOOLN/A         76  34  22  CALM    30.16F
#MITCHELL       N/A         84  46  27  CALM    30.32F
#MONUMENT HS    N/A         75  43  32  SW1     30.17F
#MT. VERNON 5SE N/A         79  38  23  CALM    30.22F
#WINLOCK        N/A         84  35  17  CALM    30.28F
$$

ORZ506-301810-
OCHOCO AND JOHN DAY HIGHLANDS

CITY            SKY/WX      TMP DP  RH  WIND    PRES   REMARKS
#HORSE RIDGE DO N/A         80  27  14  NE2     N/A
#PAULINA SCHOOL N/A         78  40  26  CALM    30.21F
#PINE MTN OBS   N/A         73  30  20  SE7     N/A
#PRAIRIE CITY   N/A         82  44  26  CALM    30.03F
#SENECA         N/A         70  N/A N/A CALM    N/A
#SENECA 9NW     N/A         70  37  30  CALM    30.12F
$$

ORZ049-301810-
GRANDE RONDE VALLEY

CITY            SKY/WX      TMP DP  RH  WIND    PRES   REMARKS
LA GRANDE       SUNNY       73  37  27  N3      30.23F
#COVE           N/A         72  49  44  NE1     30.24F
#COVE SCHOOL    N/A         73  46  38  CALM    30.24F
#COVE 6NW       N/A         72  44  37  CALM    30.16F
#ELGIN 3N       N/A         76  40  27  S1      30.19F
#ELGIN 1E       N/A         74  41  30  CALM    N/A
#ISLAND CITY 4N N/A         82  55  40  CALM    30.01F
#LADD CYN DOT   N/A         71  46  41  N1      N/A
#LA GRANDE ELEM N/A         75  45  34  CALM    30.23F
#UNION 1S       N/A         72  48  43  W1      30.02F
$$

ORZ050-301810-
WALLOWA COUNTY

CITY            SKY/WX      TMP DP  RH  WIND    PRES   REMARKS
JOSEPH AIRPORT  SUNNY       81  32  17  CALM    30.29F
#ENTERPRISE HS  N/A         78  43  29  CALM    30.25F
#IMNAHA SCHOOL  N/A         80  42  26  CALM    30.16F
#IMNAHA 10S     N/A         82  41  23  NE3     30.19F
#JOSEPH 3N      N/A         75  38  26  NW1     30.26F
#JOSEPH 3W      N/A         80  33  18  E3      30.13S
#LOSTINE        N/A         72  46  39  NW1     29.91F
#MT HOWARD 8000 N/A         66  31  27  CALM    30.55F
#PROMISE 1S     N/A         77  44  31  CALM    30.16F
#WALLOWA SCHOOL N/A         71  43  36  CALM    30.19F



$$



USA.gov is the U.S. government's official web portal to all federal, state and local government web resources and services.